Location: Catenanuova
(37.5690°N, 14.6870°E)
Time: 13:33:29
(UTC+02:00)

ISS - Visible Passes

Search period start: 03 August 2020 00:00
Search period end: 13 August 2020 00:00
Orbit: 419 x 420 km, 51.6° (Epoch: 04 August)

Date Brightness Start Highest point End Pass type
(mag) Time Alt. Az. Time Alt. Az. Time Alt. Az.
03 Aug -1.9 22:04:14 10° WNW 22:06:56 22° SW 22:06:58 22° SW visible
04 Aug -2.8 21:16:19 10° WNW 21:19:30 40° SW 21:21:23 20° SSE visible
05 Aug -3.6 20:28:37 10° NW 20:31:59 77° SW 20:35:20 10° SE visible
06 Aug -1.1 21:19:17 10° W 21:20:49 13° SW 21:22:22 10° SSW visible
07 Aug -1.7 20:30:43 10° WNW 20:33:25 22° SW 20:36:06 10° S visible
